Portland Troutdale, OR

11:19 PM PST on February 17, 2018 (GMT -0800)
Portland-Troutdale

Weather History for KTTD - November, 2013

Change the Weather History Date:

Monday, November 25, 2013

  Actual Average Record
Temperature  
Mean Temperature 45 °F 43 °F  
Max Temperature 50 °F 49 °F 65 °F (1962)
Min Temperature 39 °F 37 °F 12 °F (1985)
Degree Days  
Heating Degree Days 20 22  
Month to date heating degree days 424 468  
Cooling Degree Days 0 0  
Month to date cooling degree days 0 0  
Moisture  
Dew Point 25 °F    
Average Humidity 45    
Maximum Humidity 54    
Minimum Humidity 36    
Precipitation  
Precipitation 0.00 in 0.24 in 2.27 in (1960)
Month to date precipitation 3.41 6.06  
Year to date precipitation 25.94 38.58  
Sea Level Pressure  
Sea Level Pressure 30.30 in    
Wind  
Wind Speed 20 mph (East)    
Max Wind Speed 29 mph    
Max Gust Speed 39 mph    
Visibility 10 miles    
Events      
T = Trace of Precipitation, MM = Missing Value Source: NWS Daily Summary

Daily Weather History Graph

Daily Weather History Graph

Search for Another Location

Airport or City:

Trip Planner

Search our weather history database for the weather conditions in past years. The results will help you decide how hot, cold, wet, or windy it might be!

Date:

Astronomy

Nov. 25, 2013 Rise Set
Actual Time 7:22 AM PST 4:30 PM PST
Civil Twilight 6:49 AM PST 5:03 PM PST
Nautical Twilight 6:12 AM PST 5:40 PM PST
Astronomical Twilight 5:37 AM PST 6:15 PM PST
Moon No Moon Rise 12:30 PM PST (11/25)
Length of Visible Light 10h 14m
Length of Day
9h 07m
Waning Gibbous, 50% of the Moon is Illuminated
Nov 25
Waning Gibbous
Dec 2
New
Dec 9
First Quarter
Dec 17
Full
Dec 25
Last Quarter

Hourly Weather History & Observations

Time (PST) Temp. Windchill Dew Point Humidity Pressure Visibility Wind Dir Wind Speed Gust Speed Precip Events Conditions
12:53 AM 39.9 °F 29.5 °F 24.1 °F 53% 30.29 in 10.0 mi East 24.2 mph 34.5 mph N/A   Clear
1:53 AM 39.9 °F 29.5 °F 24.1 °F 53% 30.30 in 10.0 mi East 24.2 mph 31.1 mph N/A   Clear
2:53 AM 39.9 °F 29.2 °F 24.1 °F 53% 30.30 in 10.0 mi East 25.3 mph 32.2 mph N/A   Clear
3:53 AM 39.9 °F 29.7 °F 23.0 °F 51% 30.30 in 10.0 mi East 23.0 mph 32.2 mph N/A   Clear
4:53 AM 39.9 °F 29.5 °F 23.0 °F 51% 30.31 in 10.0 mi East 24.2 mph 32.2 mph N/A   Clear
5:53 AM 39.0 °F 29.3 °F 24.1 °F 55% 30.32 in 10.0 mi East 19.6 mph 29.9 mph N/A   Clear
6:53 AM 39.0 °F 27.6 °F 24.1 °F 55% 30.31 in 10.0 mi East 27.6 mph 35.7 mph N/A   Clear
7:53 AM 39.0 °F 28.3 °F 24.1 °F 55% 30.32 in 10.0 mi East 24.2 mph 33.4 mph N/A   Clear
8:53 AM 41.0 °F 32.2 °F 23.0 °F 49% 30.33 in 10.0 mi East 18.4 mph 28.8 mph N/A   Clear
9:53 AM 44.1 °F 35.2 °F 24.1 °F 45% 30.33 in 10.0 mi East 23.0 mph 31.1 mph N/A   Clear
10:53 AM 46.0 °F 38.3 °F 24.1 °F 42% 30.34 in 10.0 mi East 20.7 mph 29.9 mph N/A   Clear
11:53 AM 46.9 °F - 24.1 °F 41% 30.32 in 10.0 mi East 23.0 mph 29.9 mph N/A   Clear
12:53 PM 48.0 °F - 25.0 °F 41% 30.30 in 10.0 mi East 19.6 mph 28.8 mph N/A   Clear
1:53 PM 50.0 °F - 25.0 °F 38% 30.30 in 10.0 mi East 15.0 mph - N/A   Clear
2:53 PM 48.0 °F - 25.0 °F 41% 30.31 in 10.0 mi East 16.1 mph - N/A   Clear
3:53 PM 46.9 °F - 25.0 °F 42% 30.30 in 10.0 mi East 17.3 mph - N/A   Clear
4:53 PM 46.0 °F 39.3 °F 25.0 °F 44% 30.30 in 10.0 mi East 16.1 mph 25.3 mph N/A   Clear
5:53 PM 45.0 °F 38.2 °F 24.1 °F 44% 30.29 in 10.0 mi East 15.0 mph 27.6 mph N/A   Clear
6:53 PM 44.1 °F 35.9 °F 25.0 °F 47% 30.30 in 10.0 mi East 19.6 mph 27.6 mph N/A   Clear
7:53 PM 44.1 °F 35.7 °F 25.0 °F 47% 30.29 in 10.0 mi East 20.7 mph 26.5 mph N/A   Clear
8:53 PM 44.1 °F 36.5 °F 25.0 °F 47% 30.29 in 10.0 mi East 17.3 mph 25.3 mph N/A   Clear
9:53 PM 43.0 °F 35.1 °F 26.1 °F 51% 30.29 in 10.0 mi East 17.3 mph 24.2 mph N/A   Clear
10:53 PM 43.0 °F 34.2 °F 26.1 °F 51% 30.29 in 10.0 mi East 20.7 mph 26.5 mph N/A   Clear
11:53 PM 42.1 °F 33.6 °F 27.0 °F 55% 30.29 in 10.0 mi East 18.4 mph 28.8 mph N/A   Clear